Location: Swanwick
(38.1698°N, 89.5362°W)
Time: 01:14:04
(UTC+00:00)

Daily predictions for brighter satellites

Satellite Brightness Start Highest point End
(mag) Time Altitude Azimuth Time Altitude Azimuth Time Altitude Azimuth
Cosmos 1570 Rocket 4.1 01:33:48 10° NNW 01:39:02 67° ENE 01:44:16 10° SSE
Spot 2 4.0 01:35:14 10° SSE 01:39:13 62° ENE 01:43:12 10° N
H-2A R/B 2.5 01:36:43 10° NNE 01:40:33 38° E 01:44:24 10° SSE
Cosmos 2369 4.4 01:36:20 10° SSE 01:41:13 31° ESE 01:46:09 10° NE
Cosmos 1814 Rocket 4.0 01:36:32 10° NNW 01:41:41 86° WSW 01:46:49 10° SSE
Cosmos 1486 Rocket 4.3 01:37:45 10° S 01:42:46 46° ESE 01:47:48 10° NNE
Cosmos 1328 Rocket 3.7 01:38:46 10° SSE 01:42:54 50° E 01:47:06 10° NNE
MetOp-A 3.3 01:44:53 10° SSE 01:48:56 71° ENE 01:52:47 10° N
Cosmos 1697 Rocket 2.7 01:43:59 10° S 01:49:35 68° ESE 01:55:13 10° NNE
Cosmos 2098 Rocket 4.4 01:49:16 10° NNW 01:51:50 25° W 01:54:15 10° SSW
Cosmos 405 3.7 01:50:23 10° N 01:53:31 33° ENE 01:56:36 10° SE
Cosmos 389 Rocket 4.3 01:52:17 10° NNE 01:54:40 17° ENE 01:56:49 11° ESE
Cosmos 2360 4.2 01:50:32 10° SSW 01:56:11 73° ESE 02:01:51 10° NNE
CZ-4B R/B 2.0 01:54:39 10° NNE 01:57:33 32° E 02:00:22 10° SSE
ATLAS 2AS CENTAUR R/B 3.4 01:53:26 10° S 02:00:34 40° ESE 02:07:36 10° NE
Cosmos 1515 4.2 01:57:39 10° SSE 02:01:10 40° E 02:04:43 10° NNE
Cosmos 1151 Rocket 3.8 01:58:16 10° SSW 02:02:28 55° W 02:06:40 10° N
Cosmos 2297 Rocket 2.3 01:57:24 10° NNW 02:03:05 84° WSW 02:08:43 10° SSE
USA 186 3.2 02:01:03 10° SSW 02:03:10 26° W 02:05:14 10° NW
JB-3 4.4 02:00:00 10° NNE 02:04:10 76° E 02:08:17 10° S
NOSS 3-4 (A) 3.9 01:59:54 10° SW 02:05:29 61° NW 02:11:28 10° NNE
NOSS 3-4 (C) 3.9 01:59:56 10° SW 02:05:33 62° NW 02:11:33 10° NNE
OBJECT-B 3.2 02:04:07 10° SW 02:06:16 19° W 02:08:27 10° NW
COBE Rocket 4.0 02:01:32 10° SSE 02:06:39 89° W 02:11:40 10° NNW
Cosmos 1340 2.9 02:07:10 10° S 02:10:45 47° E 02:14:21 10° NNE
CZ-4 R/B 4.2 02:08:42 10° SW 02:10:50 14° W 02:13:00 10° WNW
Cosmos 1503 Rocket 4.2 02:07:04 10° S 02:12:05 49° ESE 02:17:12 10° NNE
Cosmos 1666 Rocket 4.0 02:09:28 10° NNW 02:13:50 65° W 02:18:13 10° S
Resurs 1-3 3.7 02:09:52 10° S 02:14:14 76° WSW 02:18:37 10° NNW
SJ-6B 4.2 02:13:22 10° SSW 02:16:54 36° W 02:20:24 10° NNW
H-2A R/B 3.9 02:13:42 10° SSW 02:17:48 39° W 02:21:50 10° NNW
Cosmos 1315 Rocket 3.5 02:15:17 10° NNW 02:19:15 54° W 02:23:08 10° S
SJ 16-02 2.1 02:15:43 11° SSE 02:19:20 32° E 02:23:13 10° NE
SL-16 R/B 3.9 02:18:47 13° ESE 02:19:29 13° E 02:22:03 10° ENE
Cosmos 1072 Rocket 4.4 02:14:03 10° S 02:20:03 66° E 02:26:07 10° NNE
Cosmos 1633 Rocket 3.4 02:17:28 10° NNW 02:21:48 65° W 02:26:05 10° S
SPOT 1/Viking Rocket 3.7 02:22:07 15° SSE 02:26:14 57° ENE 02:31:17 10° N
Cosmos 1743 2.8 02:24:15 10° N 02:27:58 52° E 02:30:10 22° SSE
Cosmos 1470 Rocket 3.5 02:29:09 10° N 02:33:28 86° W 02:37:01 15° S
Meteor 1-27 Rocket 3.9 02:28:40 10° S 02:34:25 83° W 02:40:19 10° N
CENTAUR R/B 4.5 02:29:37 10° NW 02:37:17 37° WSW 02:45:17 10° S
OAO 3 Rocket 3.5 02:34:06 10° W 02:38:53 52° S 02:41:31 25° SE
Cosmos 2278 3.8 02:34:16 10° S 02:39:42 52° ESE 02:45:12 10° NNE
Cosmos 2219 3.5 02:37:06 10° NNW 02:42:41 66° WSW 02:47:00 17° S
Resurs 01 Rocket 1.7 02:39:24 17° S 02:42:46 77° WSW 02:47:11 10° NNW
Cosmos 1515 Rocket 4.0 02:39:20 10° SSW 02:43:37 62° W 02:47:59 10° N
Ariane Rocket 2.9 02:40:48 20° SSE 02:44:22 81° ENE 02:49:28 10° N
SPOT 5 4.1 02:43:22 21° ESE 02:45:45 31° ENE 02:50:15 10° N
Terra 3.5 02:44:34 16° E 02:46:12 19° ENE 02:49:34 10° NNE
Cosmos 2034 Rocket 4.0 02:42:41 12° S 02:48:33 71° E 02:54:52 10° NNE
Cosmos 2082 3.7 02:43:44 10° NNW 02:49:22 71° ENE 02:52:31 27° SE
Cosmos 921 Rocket 3.2 02:46:25 10° N 02:50:53 61° ENE 02:52:48 32° SE
ISS -1.2 02:48:46 10° NNW 02:50:55 16° NNE 02:53:03 10° ENE
Cosmos 2263 Rocket 3.0 02:46:35 10° N 02:51:42 36° ENE 02:54:16 24° ESE
Cosmos 1378 4.1 02:52:06 29° E 02:52:08 29° E 02:55:20 10° NNE
Meteor 1-11 Rocket 4.3 02:47:03 10° NNW 02:52:54 59° W 02:58:21 12° S
CARTOSAT-1 3.6 02:54:34 33° SSE 02:56:24 66° ENE 03:00:41 10° N
Cosmos 2228 Rocket 3.2 02:58:45 32° SSE 03:00:41 59° E 03:05:11 10° NNE
Cosmos 1869 Rocket 3.8 02:57:29 10° N 03:01:53 51° E 03:03:11 38° SE
Okean 1 3.3 03:02:18 27° S 03:04:24 84° W 03:08:26 10° N
Cosmos 2344 4.0 02:58:17 10° SW 03:05:50 61° NW 03:13:17 10° NNE
Cosmos 1536 4.0 03:02:28 10° NNW 03:06:14 39° W 03:08:52 17° SSW
NOSS 2-1 (C) 3.5 03:07:58 40° ENE 03:07:58 40° ENE 03:10:16 10° NE
RESURS DK-1 2.6 03:05:28 10° SSW 03:09:33 69° WNW 03:13:40 10° NNE
Cosmos 2227 Rocket 3.5 03:05:05 10° NW 03:10:06 33° WSW 03:14:18 14° SSW
SL-4 R/B 2.4 03:08:35 10° WNW 03:12:59 56° SW 03:13:57 44° S
Cosmos 1980 Rocket 3.2 03:09:22 10° SW 03:14:46 47° WNW 03:20:14 10° N
USA 245 4.4 03:12:37 30° SSE 03:15:42 87° WSW 03:22:05 10° NNW
NOSS 2-1 (D) 3.1 03:18:12 54° NE 03:18:12 54° NE 03:20:46 10° NE
Cosmos 1777 Rocket 4.0 03:13:04 14° SSW 03:17:37 82° WNW 03:22:52 10° NNE
Spot 2 Rocket 3.5 03:16:25 41° SE 03:18:03 64° ENE 03:23:02 10° N
SPOT 3 Rocket 3.6 03:18:44 33° S 03:21:04 74° WSW 03:26:13 10° NNW
Cosmos 1707 Rocket 3.7 03:22:35 51° ESE 03:23:00 53° E 03:27:19 10° NNE
Cosmos 2322 Rocket 2.8 03:23:15 35° ESE 03:23:24 35° ESE 03:28:27 10° NE
Cosmos 773 Rocket 3.9 03:18:57 10° NNW 03:24:12 88° ENE 03:25:48 45° SSE
ARIANE 5 R/B 3.4 03:23:46 34° E 03:24:16 35° ENE 03:28:22 10° N
BREEZE-M DEB (TANK) 4.1 03:22:44 10° NNW 03:24:41 19° NNE 03:26:20 15° ENE
USA 215 4.2 03:21:19 10° ENE 03:25:34 27° ESE 03:25:34 27° ESE
Cosmos 2333 Rocket 4.4 03:31:12 11° ENE 03:31:12 11° ENE 03:31:30 10° ENE
Meteor 2-4 Rocket 3.7 03:28:29 37° S 03:30:51 76° E 03:36:32 10° NNE
Cosmos 44 Rocket 3.7 03:30:59 10° NNW 03:35:32 47° NE 03:36:16 43° E
Cosmos 1975 2.8 03:32:16 10° N 03:36:17 69° ENE 03:36:17 69° ENE
Helios 1A Rocket 3.3 03:43:33 49° SW 03:43:58 51° W 03:47:54 10° NNW
Cosmos 2219 Rocket 4.4 03:49:49 11° ENE 03:49:49 11° ENE 03:50:12 10° ENE
Cosmos 158 Rocket 3.9 03:42:33 10° NNW 03:47:44 83° ENE 03:48:35 63° SSE
Cosmos 1092 Rocket 4.0 03:42:24 10° N 03:48:35 77° W 03:50:43 43° S
Cosmos 1634 Rocket 4.0 03:48:30 36° SSW 03:51:15 79° W 03:57:28 10° N
ATLAS 2AS CENTAUR R/B 3.9 03:44:00 10° WSW 03:51:27 47° NW 03:58:44 10° NNE
USA 81 4.0 03:51:32 55° SSW 03:52:44 84° W 03:58:02 10° N
ERS-1 Rocket 3.1 03:52:28 54° SSW 03:53:26 69° WSW 03:58:28 10° NNW
Cosmos 2227 4.2 03:48:54 10° NNW 03:54:41 78° ENE 03:55:45 60° SE
Cosmos 2142 Rocket 4.5 03:54:38 51° SSE 03:56:18 74° E 04:02:41 10° N
Cosmos 1733 Rocket 3.1 03:51:52 10° N 03:56:04 67° ENE 03:56:04 67° ENE
Meteor 2-15 Rocket 4.3 03:56:14 55° SSE 03:57:33 74° E 04:03:37 10° N
SJ 16-02 3.8 03:54:41 10° WSW 03:57:55 20° WNW 04:01:11 10° NNW
SL-16 R/B 2.3 04:00:33 37° SW 04:02:50 74° WNW 04:08:31 10° NNE
Cosmos 2237 4.1 04:04:12 66° S 04:04:57 77° ESE 04:10:41 10° NNE
Cosmos 1538 Rocket 3.8 04:00:06 10° NNW 04:05:21 83° ENE 04:05:40 78° SE
Cosmos 1862 Rocket 3.6 04:05:58 79° NW 04:05:58 79° NW 04:10:17 10° N
Geosat 4.5 04:09:12 47° ENE 04:09:35 48° ENE 04:14:24 10° NNW
Cosmos 1441 Rocket 4.3 04:10:51 40° N 04:10:51 40° N 04:13:19 10° N
Cosmos 1346 Rocket 3.9 04:11:56 38° W 04:12:06 38° WNW 04:15:53 10° N
Cosmos 2026 Rocket 4.4 04:07:21 10° NNW 04:13:23 57° W 04:15:15 41° SW
Cosmos 1655 Rocket 4.5 04:12:33 10° N 04:18:28 44° ENE 04:18:59 43° E
ATLAS 3B R/B 2.9 04:12:51 10° NNW 04:20:19 75° ENE 04:22:21 52° SE
Cosmos 1937 Rocket 4.2 04:23:07 41° ENE 04:23:07 41° ENE 04:27:02 10° NNE
Cosmos 923 Rocket 4.4 04:18:16 10° N 04:23:29 51° ENE 04:23:29 51° ENE
Terra 2.6 04:23:27 41° WSW 04:23:38 41° W 04:28:08 10° NNW
SPOT 5 4.3 04:22:34 28° WSW 04:23:41 31° W 04:28:16 10° NW
Cosmos 2360 Rocket 2.0 04:27:32 80° E 04:27:32 80° E 04:33:07 10° NNE
ISS -1.3 04:24:44 10° NW 04:25:58 21° NW 04:25:58 21° NW
Meteor 1-13 Rocket 4.1 04:34:10 79° WSW 04:34:25 82° W 04:39:59 10° N
Cosmos 2263 Rocket 3.4 04:30:44 10° NW 04:35:26 29° WSW 04:35:57 28° WSW
Cosmos 990 Rocket 4.5 04:37:51 51° W 04:38:31 55° WNW 04:43:40 10° N
Okean 1-7 3.9 04:44:36 46° N 04:44:36 46° N 04:47:44 10° N
Cosmos 1680 Rocket 3.8 04:39:48 10° N 04:44:38 58° NE 04:44:38 58° NE
Cosmos 2266 Rocket 3.8 04:43:12 10° N 04:49:26 81° E 04:49:37 79° ESE
Cosmos 1898 Rocket 3.8 04:52:44 62° WNW 04:52:45 62° WNW 04:58:02 10° NNE
Iridium 4 Rocket 3.8 04:49:00 10° N 04:52:48 59° NNE 04:52:48 59° NNE
Cosmos 1818 4.1 04:49:18 10° NNW 04:54:35 48° NE 04:54:36 48° NE
Meteor 1-12 Rocket 4.3 04:54:31 10° NNW 05:00:19 76° W 05:00:19 76° W
ATLAS CENTAUR R/B 2.9 04:57:50 10° NNW 05:01:48 37° NE 05:01:48 37° NE
Cosmos 2322 Rocket 3.7 05:04:59 22° W 05:07:25 30° WNW 05:12:20 10° N
USA 215 3.4 05:03:38 10° NE 05:10:10 71° NW 05:12:52 38° WSW
Cosmos 2322 4.0 05:13:04 61° NE 05:13:04 61° NE 05:17:53 10° NNE
Cosmos 2333 Rocket 2.3 05:13:10 73° NNW 05:13:10 73° NNW 05:18:27 10° NNE
ADEOS Rocket 3.6 05:13:15 40° ENE 05:13:24 40° ENE 05:18:52 10° N
Cosmos 1844 Rocket 2.9 05:09:43 10° NNW 05:14:32 63° WNW 05:14:32 63° WNW
SL-08 ROCKET BODY 4.5 05:24:04 10° N 05:29:27 65° NE 05:29:27 65° NE
Cosmos 2219 Rocket 2.4 05:31:30 67° NNW 05:31:30 67° NNW 05:36:31 10° NNE
Cosmos 1844 4.3 05:34:16 10° NNW 05:38:56 48° WNW 05:38:56 48° WNW
Cosmos 1553 Rocket 4.1 05:42:09 64° ENE 05:42:09 64° ENE 05:47:50 10° NNE
USA 267 4.1 05:38:54 22° E 05:42:49 45° NE 05:48:58 10° NW
Cosmos 1244 Rocket 4.4 05:40:44 10° N 05:46:51 79° NE 05:46:51 79° NE
ALOS 2 4.1 05:51:33 32° NW 05:51:33 32° NW 05:54:04 10° NNW
Nadezhda 2 Rocket 4.4 05:44:00 10° N 05:49:49 81° N 05:49:49 81° N
NOSS 0 Rocket 4.2 05:56:55 60° ENE 05:56:55 60° ENE 06:02:24 10° NNE
Okean 2 Rocket 4.4 05:54:33 10° N 05:57:28 39° N 05:57:28 39° N
Cosmos 2237 Rocket 3.0 06:02:09 42° ENE 06:02:09 42° ENE 06:06:26 10° NE
COSMOS 2428 3.2 06:05:46 54° NW 06:05:46 54° NW 06:11:07 10° NNE
Cosmos 1953 4.5 06:05:11 10° NNE 06:07:09 24° NNE 06:07:09 24° NNE
ATLAS 3B R/B 4.4 06:04:56 10° WNW 06:09:35 22° W 06:09:35 22° W
Resurs 1-4 Rocket 4.4 06:08:24 10° ENE 06:10:14 12° E 06:10:14 12° E
CZ-4C R/B 3.0 06:05:11 10° NNW 06:12:48 82° ENE 06:14:45 58° SE
Cosmos 2298 Rocket 4.5 06:16:30 58° NNE 06:16:30 58° NNE 06:20:46 10° NNE
NOSS 3-1 (A) 4.2 06:07:48 10° NNW 06:15:34 74° NE 06:18:26 47° SE
Cosmos 1867 4.5 06:16:12 40° WNW 06:16:25 40° NW 06:21:35 10° NNE
NOSS 3-1 (C) 4.1 06:14:52 10° NW 06:22:40 67° WSW 06:23:27 64° SSW
Cosmos 1745 Rocket 3.9 06:17:28 10° N 06:23:37 77° ENE 06:23:37 77° ENE
Okean 1 Rocket 4.3 06:30:07 10° N 06:33:02 40° N 06:33:02 40° N
Cosmos 2278 Rocket 2.3 06:30:37 10° NNW 06:36:05 69° NE 06:36:05 69° NE
Cosmos 371 Rocket 4.1 06:41:23 48° NNW 06:41:23 48° NNW 06:45:10 10° N
ATLAS CENTAUR R/B 4.2 06:37:13 10° WNW 06:37:47 12° WNW 06:37:47 12° WNW
Lacrosse 5 2.8 06:43:42 41° ENE 06:43:42 41° ENE 06:47:12 10° NE
Cosmos 883 Rocket 4.4 06:42:27 83° ESE 06:42:34 83° E 06:48:56 10° N
USA 32 4.3 06:44:30 66° NNE 06:44:30 66° NNE 06:49:06 10° N
ATLAS 5 CENTAUR R/B 2.7 06:37:02 10° NW 06:45:39 70° N 06:45:39 70° N
Cosmos 304 Rocket 4.4 06:49:36 54° N 06:49:36 54° N 06:53:22 10° NNE
SL-16 R/B 3.1 06:49:47 38° E 06:49:47 38° E 06:54:40 10° NE
Cosmos 1980 4.0 06:53:24 57° WNW 06:53:24 57° WNW 06:58:51 10° NNE
SME Rocket 4.3 06:58:11 38° ENE 06:58:11 38° ENE 07:02:27 10° N
ADEOS Rocket 4.4 07:00:12 23° WNW 07:00:12 23° WNW 07:03:45 10° NW
Meteor 2-10 Rocket 3.7 06:55:46 10° N 07:01:19 73° ENE 07:01:19 73° ENE
SL-16 R/B 3.9 07:01:09 18° ESE 07:04:54 33° ENE 07:10:21 10° N
MOZ.5/SAFIR/RUBIN 5/SL-8 4.1 07:09:27 64° NE 07:09:27 64° NE 07:13:42 10° N
Cosmos 1455 Rocket 3.7 07:07:11 10° N 07:10:49 53° NNE 07:10:49 53° NNE
EO 1 Delta rocket 4.1 07:08:44 10° N 07:13:11 69° NW 07:13:11 69° NW
Meteor 1-24 Rocket 3.8 07:14:10 63° ESE 07:14:27 64° E 07:19:53 10° NNE
Cosmos 1709 Rocket 3.9 07:11:55 10° NNW 07:17:57 64° W 07:18:05 64° W
Cosmos 2315 Rocket 4.1 07:17:55 58° WSW 07:18:25 60° W 07:24:44 10° N
COSMOS 2455 3.4 07:18:09 42° SE 07:18:40 43° ESE 07:24:19 10° NE
Cosmos 1975 Rocket 3.7 07:25:12 49° NNW 07:25:12 49° NNW 07:28:42 10° N
USA 267 3.4 07:26:11 53° WSW 07:26:11 53° WSW 07:32:06 10° NW
CZ-2D R/B 2.2 07:20:30 10° NNE 07:25:49 63° ESE 07:26:09 61° ESE
Cosmos 1025 Rocket 3.6 07:27:37 53° NNW 07:27:37 53° NNW 07:31:00 10° N
Lacrosse 5 rocket 2.2 07:36:40 46° NNE 07:36:40 46° NNE 07:39:39 10° NE
USA 229 DEB 4.2 07:32:35 10° NW 07:39:42 46° WSW 07:40:07 46° WSW
USA 229 4.2 07:32:40 10° NW 07:39:48 46° WSW 07:40:15 46° SW
Meteor 2-5 Rocket 3.7 07:40:07 61° WSW 07:40:37 64° W 07:46:17 10° N
Cosmos 2237 Rocket 3.7 07:43:57 22° WNW 07:45:16 24° NW 07:49:49 10° N
UNK 4.2 07:48:50 45° ESE 07:49:54 57° ENE 07:54:26 10° N
CZ-4 R/B 3.7 07:45:18 10° N 07:49:55 72° WNW 07:49:56 72° WNW
Resurs 1-4 Rocket 2.0 07:45:26 10° N 07:50:42 73° WNW 07:51:19 65° WSW
EO 1 Del DPAF 4.4 07:49:41 10° NNE 07:52:35 33° E 07:52:35 33° E
NOSS 3-3 (A) 4.4 07:52:29 37° SE 07:53:43 42° ESE 07:59:25 10° NE
NOSS 3-3 (C) 4.4 07:52:34 37° SE 07:53:50 42° ESE 07:59:30 10° NE
Nadezhda 1 Rocket 4.1 07:53:45 42° SSE 07:56:01 72° E 08:02:18 10° N
Cosmos 1544 Rocket 3.5 07:53:45 10° N 07:57:54 71° WNW 07:57:54 71° WNW
CZ-4C R/B 4.3 07:55:05 10° WNW 07:59:52 22° W 07:59:52 22° W
Cosmos 614 Rocket 4.5 07:56:12 10° N 08:01:20 58° ENE 08:04:35 22° SE
IDEFIX/ARIANE 42P 2.9 07:57:28 10° NNE 08:02:41 60° E 08:04:17 42° SSE
Cosmos 1943 Rocket 2.1 07:57:27 10° NNW 08:03:09 83° WSW 08:05:08 43° SSE
ADEOS II 2.1 07:58:46 10° NNE 08:04:02 76° ESE 08:05:23 51° S
Meteor 1-28 Rocket 3.9 08:06:01 43° ESE 08:06:41 49° ENE 08:10:18 10° N
Cosmos 2297 3.7 08:04:51 10° NNW 08:10:38 87° ENE 08:13:59 26° SSE
MOS 1 Rocket 3.0 08:10:22 63° SSE 08:11:03 85° ENE 08:15:21 10° N
IRS-1D 4.4 08:08:42 10° NNE 08:13:47 44° E 08:16:21 26° SSE
Cosmos 2278 Rocket 4.2 08:16:49 10° WNW 08:17:53 12° WNW 08:17:53 12° WNW
Lacrosse 5 3.5 08:22:52 18° WNW 08:25:27 26° NW 08:29:43 10° NNE
NPP 4.2 08:21:04 10° N 08:26:08 43° WNW 08:27:34 35° WSW
Cosmos 1455 3.2 08:24:57 10° NNW 08:27:35 32° WNW 08:27:35 32° WNW
Cosmos 2369 Rocket 2.5 08:27:48 10° NNW 08:33:22 65° ENE 08:38:54 10° SSE
Cosmos 2154 Rocket 4.0 08:27:13 10° NNW 08:33:28 65° W 08:36:42 30° SSW
SL-16 R/B 3.4 08:31:39 23° W 08:33:37 28° WNW 08:38:29 10° N
Cosmos 1656 Rocket 4.4 08:29:44 10° NNW 08:35:02 52° ENE 08:40:18 10° SE
Cosmos 1271 Rocket 2.7 08:33:53 10° NNW 08:37:40 60° W 08:38:06 55° SW
Meteor 1-21 Rocket 4.1 08:35:30 31° S 08:38:21 90° E 08:43:57 10° N
FALCON 9 R/B 4.4 08:14:34 10° WNW 08:41:19 45° SW 08:48:52 10° SSE
Cosmos 2228 2.9 08:39:41 10° N 08:44:03 77° W 08:45:55 33° S
BREEZE-M DEB (TANK) 3.0 08:42:54 31° WSW 08:45:16 79° NW 08:48:00 10° NE
SL-16 R/B 3.1 08:46:14 29° SW 08:48:20 37° W 08:54:04 10° NNW
Cosmos 1603 3.6 08:53:54 28° SSW 08:57:00 78° WNW 09:02:42 10° NNE
Cosmos 407 Rocket 4.0 08:52:27 10° NNW 08:57:44 62° ENE 09:02:54 10° SSE
Cosmos 1371 Rocket 4.2 08:55:16 20° S 08:58:46 67° ESE 09:03:54 10° NNE
Cosmos 2058 Rocket 4.2 08:56:40 10° N 09:00:50 43° E 09:04:58 10° SSE
MOS 1-B Rocket 4.2 08:58:37 10° SSE 09:04:11 67° ENE 09:09:51 10° N
COSMOS 2455 4.0 09:01:17 18° W 09:04:42 30° NW 09:09:59 10° N
Cosmos 1140 Rocket 3.6 08:59:54 10° NNW 09:05:10 77° ENE 09:10:23 10° SSE
CZ-2D R/B 4.0 09:02:04 10° NNW 09:05:16 16° WNW 09:07:28 13° W
GPS 2-04 Rocket1 2.8 09:05:26 35° SSW 09:06:12 41° SSE 09:09:32 10° E
SeaSat 1 4.3 09:03:29 10° NE 09:07:31 25° ESE 09:11:31 10° SSE
DNEPR-1 R/B 3.8 09:06:04 27° WSW 09:08:04 52° NW 09:12:29 10° NNE
Cosmos 1328 4.0 09:06:30 29° SW 09:08:14 54° W 09:12:09 10° N
Helios 1B rocket 2.3 09:10:15 10° NNE 09:14:19 88° WNW 09:17:16 18° SSW
Lacrosse 5 rocket 3.8 09:13:50 10° NW 09:15:30 12° NNW 09:17:12 10° N
Cosmos 1241 Rocket 4.4 09:12:18 19° SSW 09:16:54 89° ESE 09:23:08 10° NNE
Cosmos 2218 Rocket 4.0 09:12:13 10° N 09:18:31 90° E 09:24:51 10° S
Cosmos 1825 3.7 09:17:39 10° SSE 09:21:03 35° E 09:24:27 10° NNE
Cosmos 1606 Rocket 3.9 09:17:00 10° NNW 09:21:10 43° W 09:24:16 16° SSW
Cosmos 1023 Rocket 4.4 09:17:38 10° NNW 09:22:54 69° WSW 09:28:04 10° S
CZ-3 R/B 4.3 08:30:55 10° WSW 09:23:48 64° S 09:36:00 10° ESE
OAO 2 Rocket 3.5 09:21:48 19° WSW 09:25:12 55° S 09:30:00 10° E
Cosmos 1943 3.9 09:23:26 18° WSW 09:27:13 39° WNW 09:32:33 10° N
Helios 1A 4.5 09:28:06 17° WSW 09:29:05 19° W 09:32:03 10° NW
Cosmos 2181 Rocket 4.1 09:25:17 13° SSW 09:30:48 58° W 09:36:53 10° N
Cosmos 1959 Rocket 4.4 09:25:02 10° N 09:31:16 75° W 09:37:23 10° S
Cosmos 1624 Rocket 4.1 09:27:34 15° SSW 09:31:54 66° WNW 09:37:12 10° NNE
Meteor 1-11 4.3 09:26:55 11° SSW 09:32:29 70° W 09:38:16 10° N
SEDSat Delta rocket 4.5 09:28:00 16° WSW 09:33:06 45° S 09:39:25 10° ESE
Lacrosse 4 Rocket 1.7 09:31:42 12° SSW 09:35:39 69° ESE 09:39:51 10° NNE
ARIANE 5 R/B 2.7 09:30:53 10° NNE 09:35:55 70° ESE 09:40:53 10° S
Cosmos 2098 4.1 09:33:14 10° N 09:36:13 84° E 09:39:19 10° S
IRS-1C 4.2 09:30:53 10° NNE 09:36:15 86° ESE 09:41:34 10° SSW
Cosmos 1408 2.8 09:35:11 14° SSW 09:38:05 51° W 09:41:38 10° N
ATLAS 3B CENTAUR R/B 3.8 09:38:54 10° SSE 09:39:54 11° SE 09:41:02 10° SE
Cosmos 1892 2.8 09:37:51 12° SSW 09:41:16 56° W 09:44:59 10° N
IDEFIX/ARIANE 42P 4.4 09:38:30 10° NNW 09:41:43 17° WNW 09:44:56 10° W
ADEOS II 4.1 09:40:38 10° NW 09:43:01 13° WNW 09:45:24 10° W
Cosmos 2056 Rocket 3.8 09:39:27 13° SW 09:43:52 50° WNW 09:49:00 10° N
Okean 1-7 Rocket 3.5 09:39:53 10° S 09:44:18 79° W 09:48:43 10° N
Cosmos 1484 Rocket 4.2 09:42:15 10° NNE 09:45:54 38° E 09:49:34 10° SSE
FENGYUN 3A 3.8 09:42:09 10° N 09:47:27 61° WNW 09:52:44 10° SSW
ALOS 2.3 09:45:28 10° N 09:50:04 63° WNW 09:54:40 10° SSW
CZ-2C R/B 4.4 09:53:31 10° SE 09:58:13 36° ENE 10:02:59 10° N
Cosmos 1602 Rocket 3.8 09:53:47 10° S 09:58:14 79° E 10:02:41 10° N
Cosmos 1190 Rocket 4.2 09:55:28 10° NNW 10:00:36 51° WSW 10:05:43 10° S
ATLAS 2A CENTAUR R/B 3.9 09:53:40 10° WSW 10:07:48 40° SSW 10:13:36 10° ESE
CZ-2C R/B 3.0 10:04:11 10° N 10:09:00 44° WNW 10:13:39 10° SW
YAOGAN 6 4.1 10:06:15 10° NNE 10:09:38 38° E 10:13:02 10° SSE
